Regional Weather Roundup
Issued by NWS Northern Indiana

Home | Current Version | Previous Version | Text Only | Print | Product List | Glossary Off
Versions: 1 2 3 4 5 6 7 8 9 10 11 12 13 14 15 16 17 18 19 20 21 22 23 24 25 26 27 28 29 30 31 32 33 34 35 36 37 38 39 40 41 42 43 44 45 46 47 48 49 50

000
ASUS43 KIWX 280910
RWRIWX

KIWX WEATHER ROUNDUP
NATIONAL WEATHER SERVICE NORTHERN INDIANA
500 AM EDT SAT MAY 28 2016

NOTE: "FAIR" INDICATES FEW OR NO CLOUDS BELOW 12,000 FEET WITH NO
SIGNIFICANT WEATHER AND/OR OBSTRUCTIONS TO VISIBILITY.

* THESE STATIONS ARE NOT UNDER NWS QUALITY CONTROL. THEY ALSO MAY NOT
  REPORT WEATHER SUCH AS PRECIPITATION OR FOG.

INZ001>027-281000-
NORTHERN INDIANA

CITY           SKY/WX    TMP DP  RH WIND       PRES   REMARKS
GARY*          MOCLDY    72  71  96 SE9       29.88S
VALPARAISO     CLOUDY    70  64  81 SE8       29.91S
MICHIGAN CITY* CLOUDY    70  68  94 CALM      29.91F
LAPORTE*       CLOUDY    71  69  96 SE5       29.92S
KNOX*          MOCLDY    70  55  60 SE10      29.92S
SOUTH BEND     CLOUDY    72  60  66 SE9       29.93S
GOSHEN         MOCLDY    73  61  65 SE9       29.95S
MONTICELLO*    PTCLDY    74  60  62 S9        29.92S
LOGANSPORT*    CLOUDY    72  64  78 S10       29.95F
ROCHESTER*     CLOUDY    77  64  65 S12G18    29.95R
WARSAW*        CLOUDY    72  63  73 S3        29.95S
ANGOLA*          N/A     66  61  82 SE3       29.97F
FORT WAYNE     CLOUDY    70  63  78 S7        29.98R
HUNTINGTON*    CLOUDY    71  64  78 S5        29.97S
PERU/GRISSOM   CLOUDY    74  65  73 S10       29.94S
MARION*        CLOUDY    72  63  73 S9        29.98S

$$
INZ028>050-281000-
CENTRAL INDIANA

CITY           SKY/WX    TMP DP  RH WIND       PRES   REMARKS
LAFAYETTE      CLOUDY    74  62  66 S10G18    29.92S
KOKOMO*        CLOUDY    73  63  68 S13       29.96S
MUNCIE*        CLOUDY    75  64  68 S10       29.99R
INDIANAPOLIS   CLOUDY    73  64  73 S10       29.96R

$$
MIZ043>046-050>051-056>058-064>065-071>073-077>080-281000-
SOUTHWEST LOWER MICHIGAN

CITY           SKY/WX    TMP DP  RH WIND       PRES   REMARKS
BATTLE CREEK   CLEAR     68  60  75 S9        29.96S
BENTON HARBOR  CLOUDY    70  64  81 SE5       29.91S
COLDWATER*     CLEAR     69  62  77 S6        29.97S
HILLSDALE*     PTCLDY    68  59  72 S3        29.99S
HOLLAND        CLOUDY    69  65  86 SE6       29.93R
GRAND RAPIDS   CLOUDY    69  63  81 S5        29.94R
KALAMAZOO      CLOUDY    72  59  63 S6        29.95S
STURGIS*       PTCLDY    69  62  76 S7        29.96S
THREE RIVERS*  FAIR      71  59  67 S7        29.95S

$$
OHZ001>008-015>018-024>025-281000-
NORTHWEST OHIO

CITY           SKY/WX    TMP DP  RH WIND       PRES   REMARKS
WAUSEON*         N/A     68  68 100 S6        29.99S
DEFIANCE       CLEAR     71  61  70 S3        29.98S
FINDLAY        PTCLDY    69  60  73 S6        30.00R
TOLEDO EXPRESS CLEAR     67  61  81 S3        29.99R
TOLEDO METCALF CLEAR     70  60  70 S6        30.00S
LIMA           CLEAR     68  62  81 S6        30.01R

$$
AND FOR LAKE MICHIGAN COASTAL AND OPEN LAKE BUOY OBSERVATIONS

STATION/POSITION TEMP    WIND        PRES    VSBY  WAVE
                 AIR SEA DIR/SP/G                  HT/PER
                 (F)     (DEG/KT/KT) (MB)    (MI)  (FT/S)
CALUMET HARBOR    70     150/  8/ 11 1011.1F
MICHIGAN CITY     70     130/  9/ 11   N/A
BURNS HARBOR      71     160/ 10/ 16 1012.5F
SAINT JOSEPH      70      CALM  /  3 1013.5S
SOUTH LAKE BUOY   55 50  140/ 10/ 12 1011.6R         1/ 4
4 MI NW BRIDGMAN  67 61  130/  8/ 10   N/A           1/ 3
MICHIGAN CITY     67 58  150/  8/ 10   N/A           1

$$
&&




USA.gov is the U.S. government's official web portal to all federal, state and local government web resources and services.